Location: LDNL
(36.4545°S, 141.6685°E)
Time: 04:29:07
(UTC+11:00)

A-11 Canister half - Pass Details

Date: 15 August 2022
Orbit: 1524 x 1684 km, 47.3° (Epoch: 05 October)

Event Time Altitude Azimuth Distance (km) Brightness Sun altitude
Rises 18:06:31 0° 282° (WNW) 4,708 14.8 -2.1°
Reaches altitude 10° 18:09:41 10° 277° (W) 3,716 13.0 -2.8°
Maximum altitude 18:18:49 55° 200° (SSW) 1,795 9.5 -4.5°
Drops below altitude 10° 18:27:59 10° 123° (ESE) 3,722 10.4 -6.3°
Enters shadow 18:29:25 - 121° (ESE) 4,165 10.7 -6.6°
Sets 18:31:11 0° 118° (ESE) 4,717 - -7.0°
